User: anonymous   Login
Location: Unspecified
(0.0000°N, 0.0000°E)
Time: 00:47:42
(UTC+02:00)
Language:

Resurs 1-3 - Orbit

View from above orbital plane
View from above orbital plane
View from above satellite
View from above satellite

Ground track
Ground track

The orbit data is extracted from the following two-line orbital elements,

1 23342U 94074A   14297.70026122  .00000933  00000-0  13511-3 0  3343
2 23342 098.1644 309.7214 0001109 078.2915 049.5374 14.78535600 74920
Epoch (UTC): 24 October 2014 16:48:22
Eccentricity: 0.0001109
inclination: 98.1644°
perigee height: 633 km
apogee height: 635 km
right ascension of ascending node: 309.7214°
argument of perigee: 78.2915°
revolutions per day: 14.78535600
mean anomaly at epoch: 49.5374°
orbit number at epoch: 7492

The dashed part of the orbit path shows where the satellite is in the earth's shadow,  

DLR